This is the latest recevied weather packets stored in our database for station/object F4AMY-13. If no packets are shown the sender has not sent any weather packets the latest 10 day(s).
| Time | Temp. | Humidity | Pressure | Rain* | Wind** | Luminosity | Snow |
|---|---|---|---|---|---|---|---|
| 1777614136 | 14.44° C | 68% | 1021 hPa | 0 mm | 2.24 m/s, ° | 5 W/m² | - |
| 1777613836 | 13.89° C | 70% | 1021.1 hPa | 0 mm | 0.89 m/s, ° | 2 W/m² | - |
| 1777613535 | 13.89° C | 71% | 1021.1 hPa | 0 mm | 0 m/s | 0 W/m² | - |
| 1777613235 | 13.89° C | 71% | 1021.1 hPa | 0 mm | 0 m/s | 0 W/m² | - |
| 1777612935 | 13.89° C | 71% | 1021 hPa | 0 mm | 0 m/s | 0 W/m² | - |
| 1777612635 | 13.89° C | 71% | 1020.9 hPa | 0 mm | 0 m/s | 0 W/m² | - |
| 1777612335 | 13.89° C | 71% | 1020.9 hPa | 0 mm | 0 m/s | 0 W/m² | - |
| 1777612035 | 13.89° C | 71% | 1020.9 hPa | 0 mm | 0 m/s | 0 W/m² | - |
| 1777611735 | 13.33° C | 72% | 1020.8 hPa | 0 mm | 0 m/s | 0 W/m² | - |
| 1777611435 | 13.33° C | 72% | 1020.8 hPa | 0 mm | 0 m/s | 0 W/m² | - |
| 1777611135 | 13.33° C | 71% | 1020.7 hPa | 0 mm | 0 m/s | 0 W/m² | - |
| 1777610835 | 13.33° C | 71% | 1020.7 hPa | 0 mm | 0 m/s | 0 W/m² | - |
| 1777610535 | 13.33° C | 74% | 1020.7 hPa | 0 mm | 0 m/s | 0 W/m² | - |
| 1777610235 | 13.33° C | 76% | 1020.7 hPa | 0 mm | 0 m/s | 0 W/m² | - |
| 1777609935 | 13.33° C | 76% | 1020.4 hPa | 0 mm | 0 m/s | 0 W/m² | - |
| 1777609635 | 13.33° C | 74% | 1020.6 hPa | 0 mm | 0 m/s | 0 W/m² | - |
| 1777609335 | 12.78° C | 75% | 1020.5 hPa | 0 mm | 0 m/s | 0 W/m² | - |
| 1777609035 | 12.78° C | 74% | 1020.6 hPa | 0 mm | 0 m/s | 0 W/m² | - |
| 1777608735 | 12.78° C | 78% | 1020.5 hPa | 0 mm | 0 m/s | 0 W/m² | - |
| 1777608435 | 12.78° C | 75% | 1020.4 hPa | 0 mm | 0 m/s | 0 W/m² | - |
| 1777608135 | 12.78° C | 79% | 1020.4 hPa | 0 mm | 0 m/s | 0 W/m² | - |
| 1777607835 | 12.78° C | 78% | 1020.5 hPa | 0 mm | 0 m/s | 0 W/m² | - |
| 1777607535 | 12.78° C | 78% | 1020.3 hPa | 0 mm | 0 m/s | 0 W/m² | - |
| 1777607235 | 12.78° C | 75% | 1020.2 hPa | 0 mm | 0 m/s | 0 W/m² | - |
| 1777606935 | 12.78° C | 83% | 1020.3 hPa | 0 mm | 0 m/s | 0 W/m² | - |
* Rain latest hour (hover to see other rain measurements)
** Current wind speed in m/s (hover to see current wind gust speed)